Weather History for EBLG - October, 2011

Change the Weather History Date:

Wednesday, October 26, 2011

  Actual Average Record
Temperature  
Mean Temperature 52 °F -  
Max Temperature 56 °F 47 °F 73 °F (2006)
Min Temperature 47 °F 38 °F 32 °F (2010)
Degree Days  
Heating Degree Days 14    
Growing Degree Days 2 (Base 50)    
Moisture  
Dew Point 42 °F    
Average Humidity 73    
Maximum Humidity 87    
Minimum Humidity 43    
Precipitation  
Precipitation 0.00 in - - ()
Sea Level Pressure  
Sea Level Pressure 29.85 in    
Wind  
Wind Speed 10 mph ()    
Max Wind Speed 20 mph    
Max Gust Speed -    
Visibility 7.4 miles    
Events Rain    
Averages and records for this station are not official NWS values.
T = Trace of Precipitation, MM = Missing Value Source: Averaged Metar Reports

Daily Weather History Graph

Daily Weather History Graph

Search for Another Location

Airport or City:

Trip Planner

Search our weather history database for the weather conditions in past years. The results will help you decide how hot, cold, wet, or windy it might be!

Date:

Astronomy

Oct. 26, 2011 Rise Set
Actual Time 8:18 AM CEST 6:25 PM CEST
Civil Twilight 7:44 AM CEST 6:58 PM CEST
Nautical Twilight 7:06 AM CEST 7:37 PM CEST
Astronomical Twilight 6:28 AM CEST 8:15 PM CEST
Moon 7:49 AM CEST (10/26) 5:49 PM CEST (10/26)
Length of Visible Light 11h 14m
Length of Day
10h 06m
Waning Crescent, 0% of the Moon is Illuminated
Oct 26
Waning Crescent
Oct 26
New
Nov 2
First Quarter
Nov 10
Full
Nov 18
Last Quarter

Hourly Weather History & Observations

Time (CEST) Temp. Dew Point Humidity Pressure Visibility Wind Dir Wind Speed Gust Speed Precip Events Conditions
12:20 AM 50.0 °F 46.4 °F 87% 29.68 in 6.2 mi South 9.2 mph - N/A   Partly Cloudy
12:50 AM 50.0 °F 46.4 °F 87% 29.68 in 6.2 mi South 8.1 mph - N/A Rain Light Rain
1:20 AM 50.0 °F 46.4 °F 87% 29.68 in 6.2 mi South 10.4 mph - N/A Rain Light Rain
1:50 AM 50.0 °F 46.4 °F 87% 29.68 in 6.2 mi South 11.5 mph - N/A   Partly Cloudy
2:00 AM 50 °F 46 °F 81% 29.71 in 6 mi South 11.2 mph - - Rain Light Rain
2:20 AM 50.0 °F 44.6 °F 82% 29.71 in 6.2 mi SSW 9.2 mph - N/A   Scattered Clouds
2:50 AM 48.2 °F 44.6 °F 87% 29.71 in 6.2 mi South 12.7 mph - N/A   Scattered Clouds
3:20 AM 48.2 °F 44.6 °F 87% 29.71 in 6.2 mi SSW 10.4 mph - N/A   Partly Cloudy
3:50 AM 48.2 °F 44.6 °F 87% 29.74 in 6.2 mi SSW 9.2 mph - N/A   Partly Cloudy
4:20 AM 48.2 °F 44.6 °F 87% 29.74 in 6.2 mi SSW 10.4 mph - N/A   Mostly Cloudy
4:50 AM 48.2 °F 44.6 °F 87% 29.74 in 6.2 mi South 11.5 mph - N/A   Mostly Cloudy
5:00 AM 49 °F 45 °F 80% 29.75 in 19 mi South 11.2 mph - -   Mostly Cloudy
5:20 AM 50.0 °F 42.8 °F 76% 29.74 in 6.2 mi South 12.7 mph - N/A   Mostly Cloudy
5:50 AM 48.2 °F 42.8 °F 82% 29.77 in 6.2 mi South 12.7 mph - N/A   Mostly Cloudy
6:20 AM 48.2 °F 42.8 °F 82% 29.77 in 6.2 mi South 15.0 mph - N/A   Mostly Cloudy
6:50 AM 48.2 °F 42.8 °F 82% 29.77 in 6.2 mi South 15.0 mph - N/A   Mostly Cloudy
7:20 AM 48.2 °F 42.8 °F 82% 29.77 in 6.2 mi South 11.5 mph - N/A   Mostly Cloudy
7:50 AM 48.2 °F 42.8 °F 82% 29.80 in 6.2 mi SSW 11.5 mph - N/A   Mostly Cloudy
8:00 AM 47 °F 42 °F 77% 29.81 in 19 mi SSW 11.2 mph - -   Mostly Cloudy
8:20 AM 48.2 °F 42.8 °F 82% 29.80 in 6.2 mi SSW 10.4 mph - N/A   Mostly Cloudy
8:50 AM 48.2 °F 42.8 °F 82% 29.83 in 6.2 mi South 12.7 mph - N/A   Mostly Cloudy
9:20 AM 48.2 °F 42.8 °F 82% 29.83 in 6.2 mi South 13.8 mph - N/A   Mostly Cloudy
9:50 AM 48.2 °F 42.8 °F 82% 29.86 in 6.2 mi SSW 12.7 mph - N/A   Mostly Cloudy
10:20 AM 48.2 °F 42.8 °F 82% 29.86 in 6.2 mi South 15.0 mph - N/A   Scattered Clouds
10:50 AM 50.0 °F 42.8 °F 76% 29.86 in 6.2 mi SSW 13.8 mph - N/A   Scattered Clouds
11:00 AM 49 °F 43 °F 73% 29.89 in 19 mi SSW 13.4 mph - -   Mostly Cloudy
11:20 AM 50.0 °F 42.8 °F 76% 29.86 in 6.2 mi SSW 13.8 mph - N/A   Scattered Clouds
11:50 AM 50.0 °F 42.8 °F 76% 29.89 in 6.2 mi SSW 17.3 mph - N/A   Scattered Clouds
12:20 PM 50.0 °F 41.0 °F 71% 29.89 in 6.2 mi South 15.0 mph - N/A   Mostly Cloudy
12:50 PM 51.8 °F 41.0 °F 67% 29.92 in 6.2 mi SSW 19.6 mph - N/A   Mostly Cloudy
1:20 PM 51.8 °F 41.0 °F 67% 29.92 in 6.2 mi SSW 19.6 mph - N/A   Scattered Clouds
1:50 PM 53.6 °F 41.0 °F 62% 29.92 in 6.2 mi South 18.4 mph - N/A   Scattered Clouds
2:20 PM 53.6 °F 41.0 °F 62% 29.92 in 6.2 mi SSW 17.3 mph - N/A   Scattered Clouds
2:50 PM 55.4 °F 39.2 °F 54% 29.92 in 6.2 mi SSW 16.1 mph - N/A   Partly Cloudy
3:20 PM 55.4 °F 41.0 °F 58% 29.89 in 6.2 mi South 15.0 mph - N/A   Partly Cloudy
3:50 PM 57.2 °F 41.0 °F 55% 29.89 in 6.2 mi South 12.7 mph - N/A   Partly Cloudy
4:20 PM 57.2 °F 39.2 °F 51% 29.92 in 6.2 mi South 13.8 mph - N/A   Partly Cloudy
4:50 PM 55.4 °F 39.2 °F 54% 29.92 in 6.2 mi South 11.5 mph - N/A   Partly Cloudy
5:00 PM 56 °F 40 °F 43% 29.92 in 19 mi South 11.2 mph - -   Scattered Clouds
5:20 PM 55.4 °F 39.2 °F 54% 29.92 in 6.2 mi South 12.7 mph - N/A   Partly Cloudy
5:50 PM 53.6 °F 39.2 °F 58% 29.92 in 6.2 mi South 11.5 mph - N/A   Partly Cloudy
6:20 PM 53.6 °F 39.2 °F 58% 29.92 in 6.2 mi South 10.4 mph - N/A   Partly Cloudy
6:50 PM 53.6 °F 39.2 °F 58% 29.92 in 6.2 mi SSE 6.9 mph - N/A   Partly Cloudy
7:20 PM 51.8 °F 41.0 °F 67% 29.92 in 6.2 mi SSE 6.9 mph - N/A   Partly Cloudy
7:50 PM 50.0 °F 41.0 °F 71% 29.92 in - SSE 6.9 mph - N/A   Clear
8:00 PM 50 °F 40 °F 60% 29.95 in 22 mi SSE 6.7 mph - -   Scattered Clouds
8:20 PM 50.0 °F 41.0 °F 71% 29.95 in - SE 5.8 mph - N/A   Clear
8:50 PM 50.0 °F 41.0 °F 71% 29.95 in - SE 6.9 mph - N/A   Clear
9:20 PM 48.2 °F 41.0 °F 76% 29.95 in - SE 6.9 mph - N/A   Clear
9:50 PM 48.2 °F 41.0 °F 76% 29.95 in - SE 6.9 mph - N/A   Clear
10:20 PM 48.2 °F 41.0 °F 76% 29.95 in - SSE 6.9 mph - N/A   Clear
10:50 PM 48.2 °F 41.0 °F 76% 29.95 in - SE 8.1 mph - N/A   Clear
11:00 PM 48 °F 41 °F 68% 29.96 in 25 mi SE 8.9 mph - -   Scattered Clouds
11:20 PM 48.2 °F 41.0 °F 76% 29.95 in - SE 8.1 mph - N/A   Clear
11:50 PM 48.2 °F 41.0 °F 76% 29.95 in - SE 9.2 mph - N/A   Clear